{"data":{"norad_id":31306,"intl_designator":"2007-016A","name":"ASTRA 1L","alt_names":[],"object_type":"PAYLOAD","status":"ACTIVE","operator":null,"country":"SES","launch_date":"2007-05-04","launch_site_code":"FRGUI","launch_vehicle":null,"mission":null,"orbit_class":"UNKNOWN","rcs_meters":18.3351,"size_class":null,"mass_kg":null,"dimensions":null,"purposes":["comms"],"wikipedia_slug":null,"has_3d_model":false,"image_url":null,"decayed_at":null,"tle_current":{"epoch":"2026-05-25T03:33:28.768896Z","epoch_age_seconds":65727,"freshness":"FRESH","line1":"1 31306U 07016A   26145.14824964 -.00000186  00000+0  00000+0 0  9997","line2":"2 31306   1.2646  81.7455 0005102 350.4596 199.3973  1.00272980 44754","mean_motion":1.0027298,"eccentricity":0.0005102,"inclination_deg":1.2646,"raan_deg":81.7455,"arg_perigee_deg":350.4596,"mean_anomaly_deg":199.3973,"bstar":0,"rev_number":4475,"period_min":1436.0797893909,"perigee_km":35764.747687308,"apogee_km":35807.772237968,"semimajor_km":42164.396962638,"source":"CELESTRAK","updated_at":"2026-05-25T13:38:14.500626Z"}}}